Location: Wien
(48.2082°N, 16.3738°E)
Time: 20:12:38
(UTC+02:00)

EO-79 - Pass Details

Date: 28 March 2019
Orbit: 592 x 610 km, 97.9° (Epoch: 15 October)

Event Time Altitude Azimuth Distance (km) Brightness Sun altitude
Rises 00:45:04 0° 10° (N) 2,880 ? -38.1°
Reaches altitude 10° 00:47:16 10° 8° (N) 1,973 ? -38.0°
Enters shadow 00:47:46 13° 7° (N) 1,766 ? -37.9°
